FW1999 Weather Reports


time (UTC)temp
F
wind
direction
speed
knots
gust
knots
rain 1hr
in
rain 24hr
in
rain mn
in
humidity
%
barometer
mb
20260503214750 60 132 2.6 8.7 0.00 0.00 0.00 33 1011.5
20260503214250 61 106 1.7 8.7 0.00 0.00 0.00 31 1011.5
20260503213734 61 113 1.7 5.2 0.00 0.00 0.00 33 1011.4
20260503213506 61 88 0.9 5.2 0.00 0.00 0.00 34 1011.4
20260503212718 61 101 1.7 7.0 0.00 0.00 0.00 33 1011.4
20260503212206 60 72 1.7 7.0 0.00 0.00 0.00 35 1011.5
20260503211709 60 94 1.7 7.0 0.00 0.00 0.00 33 1011.4
20260503211151 60 75 2.6 7.0 0.00 0.00 0.00 33 1011.5
20260503210645 60 85 3.5 8.7 0.00 0.00 0.00 34 1011.6
20260503210418 60 21 3.5 10.4 0.00 0.00 0.00 34 1011.7
20260503205644 60 72 2.6 10.4 0.00 0.00 0.00 33 1011.5
20260503205116 60 45 1.7 6.1 0.00 0.00 0.00 34 1011.6
20260503204846 60 143 1.7 6.1 0.00 0.00 0.00 34 1011.5
20260503204116 60 105 2.6 6.1 0.00 0.00 0.00 34 1011.6
20260503203613 60 91 3.5 10.4 0.00 0.00 0.00 37 1011.6
20260503203046 59 72 4.3 10.4 0.00 0.00 0.00 32 1011.6
20260503202547 60 84 3.5 7.8 0.00 0.00 0.00 35 1011.5
20260503202050 59 66 2.6 7.8 0.00 0.00 0.00 36 1011.6
20260503202046 59 106 3.5 7.8 0.00 0.00 0.00 35 1011.6
20260503201029 60 117 1.7 6.1 0.00 0.00 0.00 33 1011.7
20260503200530 60 78 1.7 5.2 0.00 0.00 0.00 35 1011.8
20260503200001 60 129 2.6 5.2 0.00 0.00 0.00 35 1011.7
20260503195459 60 101 2.6 5.2 0.00 0.00 0.00 33 1011.8
20260503194953 60 68 1.7 5.2 0.00 0.00 0.00 35 1011.9
20260503194450 59 85 1.7 5.2 0.00 0.00 0.00 35 1011.8
20260503193953 59 113 1.7 3.5 0.00 0.00 0.00 34 1011.8
20260503193724 59 101 2.6 7.8 0.00 0.00 0.00 36 1011.8
20260503192944 60 89 4.3 12.2 0.00 0.00 0.00 34 1011.9
20260503192416 60 75 2.6 12.2 0.00 0.00 0.00 32 1011.9
20260503192133 60 7 2.6 7.8 0.00 0.00 0.00 39 1012.0
20260503191403 58 82 2.6 8.7 0.00 0.00 0.00 36 1012.0
20260503190858 58 53 2.6 8.7 0.00 0.00 0.00 37 1012.0
20260503190359 59 85 3.5 8.7 0.00 0.00 0.00 34 1012.0
20260503185856 58 66 4.3 11.3 0.00 0.00 0.00 36 1012.2
20260503185330 58 60 4.3 14.8 0.00 0.00 0.00 35 1012.0
20260503184816 58 60 3.5 14.8 0.00 0.00 0.00 35 1012.0
20260503184539 58 84 2.6 8.7 0.00 0.00 0.00 33 1012.4
20260503183808 59 101 1.7 7.0 0.00 0.00 0.00 34 1012.3
20260503183251 59 111 2.6 7.8 0.00 0.00 0.00 39 1012.3
20260503182729 58 86 2.6 7.8 0.00 0.00 0.00 36 1012.5
20260503182151 58 98 2.6 7.0 0.00 0.00 0.00 39 1012.4
20260503181633 57 72 4.3 11.3 0.00 0.00 0.00 40 1012.5
20260503181122 57 68 3.5 11.3 0.00 0.00 0.00 35 1012.2
20260503180600 57 82 2.6 8.7 0.00 0.00 0.00 37 1012.5
20260503180337 57 131 2.6 7.0 0.00 0.00 0.00 38 1012.6
20260503175545 56 96 2.6 7.0 0.00 0.00 0.00 38 1012.6
20260503175047 56 60 1.7 6.1 0.00 0.00 0.00 37 1012.9
20260503174509 56 82 1.7 7.8 0.00 0.00 0.00 40 1012.9
20260503174005 56 93 2.6 7.8 0.00 0.00 0.00 40 1012.9
20260503173445 56 60 2.6 8.7 0.00 0.00 0.00 38 1012.8
20260503172935 57 148 2.6 8.7 0.00 0.00 0.00 41 1012.9
20260503172909 57 99 1.7 6.1 0.00 0.00 0.00 39 1012.9
20260503172122 56 62 1.7 6.1 0.00 0.00 0.00 40 1013.1
20260503171327 54 47 1.7 5.2 0.00 0.00 0.00 43 1013.0
20260503170824 54 61 1.7 5.2 0.00 0.00 0.00 43 1013.3
20260503170555 55 64 1.7 3.5 0.00 0.00 0.00 43 1013.1
20260503150851 50 215 1.7 5.2 0.00 0.00 0.00 51 1013.7
20260503150353 50 157 0.9 2.6 0.00 0.00 0.00 50 1013.7
20260503130910 47 123 0.9 5.2 0.00 0.00 0.00 56 1013.4
20260503130339 47 155 0.9 2.6 0.00 0.00 0.00 55 1013.5
20260503120107 46 139 0.9 2.6 0.00 0.00 0.00 58 1013.5
20260503110824 44 148 0.9 2.6 0.00 0.00 0.00 60 1012.9
20260503110309 44 219 0.0 2.6 0.00 0.00 0.00 61 1012.9
20260503081304 40 109 0.0 0.0 0.00 0.00 0.00 68 1011.1
20260503080726 40 108 0.0 0.0 0.00 0.00 0.00 67 1011.2
20260503080156 41 108 0.0 0.0 0.00 0.00 0.00 66 1011.2
20260503072557 42 109 0.0 0.0 0.00 0.00 0.00 62 1011.1
20260503072031 42 108 0.0 0.0 0.00 0.00 0.00 62 1011.1
20260503071742 42 109 0.0 0.0 0.00 0.00 0.00 63 1011.1
20260503071011 43 108 0.0 0.0 0.00 0.00 0.00 63 1011.0
20260503070456 43 109 0.0 0.0 0.00 0.00 0.00 63 1011.0
20260503054732 46 109 0.0 0.0 0.00 0.00 0.00 57 1011.3
20260503054206 46 109 0.0 0.0 0.00 0.00 0.00 57 1011.4
20260503053659 46 108 0.0 0.0 0.00 0.00 0.00 56 1011.3
20260503053157 46 108 0.0 0.9 0.00 0.00 0.00 57 1011.4
20260503052656 46 109 0.0 0.9 0.00 0.00 0.00 56 1011.4
20260503052157 47 108 0.0 0.0 0.00 0.00 0.00 56 1011.5
20260503051657 47 108 0.0 0.0 0.00 0.00 0.00 56 1011.5
20260503051125 47 108 0.0 0.0 0.00 0.00 0.00 56 1011.5
20260503050627 47 108 0.0 0.0 0.00 0.00 0.00 55 1011.5
20260503050333 47 108 0.0 0.0 0.00 0.00 0.00 56 1011.6
20260503045602 47 108 0.0 0.9 0.00 0.00 0.00 55 1011.7
20260503045046 47 108 0.0 0.9 0.00 0.00 0.00 55 1011.8
20260503044535 47 108 0.0 0.0 0.00 0.00 0.00 56 1011.7
20260503044032 47 108 0.0 0.0 0.00 0.00 0.00 55 1011.7
20260503043800 47 108 0.0 0.0 0.00 0.00 0.00 56 1011.7
20260503043010 47 108 0.0 0.0 0.00 0.00 0.00 56 1011.7
20260503042508 47 108 0.0 0.9 0.00 0.00 0.00 56 1011.9
20260503042010 47 108 0.0 0.9 0.00 0.00 0.00 55 1011.9
20260503041502 47 108 0.0 0.0 0.00 0.00 0.00 55 1011.9
20260503040959 47 108 0.0 0.9 0.00 0.00 0.00 55 1011.9
20260503040459 47 108 0.0 0.9 0.00 0.00 0.00 54 1011.9
20260503035950 47 108 0.0 0.0 0.00 0.00 0.00 55 1012.0
20260503035445 47 108 0.0 0.0 0.00 0.00 0.00 55 1011.8
20260503034943 47 108 0.0 0.0 0.00 0.00 0.00 54 1011.9
20260503034437 47 108 0.0 0.9 0.00 0.00 0.00 54 1011.8
20260503033926 47 113 0.0 0.9 0.00 0.00 0.00 55 1011.7
20260503033410 47 113 0.0 0.9 0.00 0.00 0.00 55 1011.8
20260503032845 47 113 0.0 0.9 0.00 0.00 0.00 54 1011.8
20260503032343 47 112 0.0 0.9 0.00 0.00 0.00 56 1011.8
20260503031755 46 113 0.0 0.9 0.00 0.00 0.00 56 1011.8
20260503031232 46 137 0.0 0.0 0.00 0.00 0.00 55 1011.9
20260503030714 47 137 0.0 0.0 0.00 0.00 0.00 56 1011.9
20260503030202 47 137 0.0 0.0 0.00 0.00 0.00 55 1011.9
20260503025647 47 137 0.0 0.0 0.00 0.00 0.00 55 1012.0
20260503025116 47 137 0.0 0.0 0.00 0.00 0.00 55 1012.0
20260503024548 47 137 0.0 0.0 0.00 0.00 0.00 55 1012.0
20260503024022 47 137 0.0 0.0 0.00 0.00 0.00 55 1011.8
20260503023516 47 137 0.0 0.0 0.00 0.00 0.00 55 1011.8
20260503023014 48 137 0.0 0.0 0.00 0.00 0.00 55 1011.8
20260503022509 48 137 0.0 0.0 0.00 0.00 0.00 53 1011.9
20260503022010 49 137 0.0 0.0 0.00 0.00 0.00 54 1011.9
20260503021723 49 137 0.0 0.0 0.00 0.00 0.00 52 1011.8
20260503021158 50 137 0.0 0.0 0.00 0.00 0.00 52 1011.8
20260503020401 50 136 0.0 0.0 0.00 0.00 0.00 52 1011.6
20260503015835 50 137 0.0 0.9 0.00 0.00 0.00 52 1011.8
20260503015543 51 137 0.0 0.9 0.00 0.00 0.00 51 1011.8
20260503014749 51 137 0.0 2.6 0.00 0.00 0.00 50 1011.8
20260503014225 51 142 0.0 2.6 0.00 0.00 0.00 51 1011.8
20260503013715 51 106 0.0 0.9 0.00 0.00 0.00 51 1011.6
20260503013419 51 106 0.0 0.9 0.00 0.00 0.00 50 1011.6
20260503012631 51 73 0.0 0.9 0.00 0.00 0.00 50 1011.7
20260503012620 51 112 0.0 0.9 0.00 0.00 0.00 51 1011.8
20260503011616 51 112 0.0 0.9 0.00 0.00 0.00 51 1011.7
20260503011112 51 112 0.0 0.9 0.00 0.00 0.00 52 1011.7
20260503010842 52 112 0.0 0.9 0.00 0.00 0.00 52 1011.7
20260503010320 52 112 0.0 0.9 0.00 0.00 0.00 51 1011.7
20260503005810 52 112 0.0 0.9 0.00 0.00 0.00 52 1011.5
20260503005037 52 112 0.0 0.9 0.00 0.00 0.00 51 1011.5
20260503004540 52 112 0.0 0.9 0.00 0.00 0.00 51 1011.4
20260503004024 52 112 0.0 0.9 0.00 0.00 0.00 49 1011.4
20260503003508 52 113 0.0 0.0 0.00 0.00 0.00 49 1011.3
20260503003011 53 112 0.0 0.0 0.00 0.00 0.00 50 1011.2
20260503002458 53 113 0.0 0.0 0.00 0.00 0.00 49 1011.3
20260503001958 53 113 0.0 0.0 0.00 0.00 0.00 49 1011.2
20260503001500 53 113 0.0 1.7 0.00 0.00 0.00 49 1011.1
20260503000957 53 113 0.0 1.7 0.00 0.00 0.00 47 1011.1
20260503000946 53 64 0.0 0.0 0.00 0.00 0.00 48 1011.1
20260502235930 53 65 0.0 0.0 0.00 0.00 0.00 49 1011.1
20260502235407 54 61 0.0 0.0 0.00 0.00 0.00 48 1011.0
20260502234856 54 61 0.0 0.9 0.00 0.00 0.00 47 1010.9
20260502234335 54 60 0.0 0.9 0.00 0.00 0.00 46 1010.9
20260502233806 54 98 0.0 0.9 0.00 0.00 0.00 46 1010.9
20260502233250 54 98 0.0 0.0 0.00 0.00 0.00 46 1010.8
20260502232730 54 98 0.0 0.0 0.00 0.00 0.00 47 1011.0
20260502232210 55 98 0.0 0.9 0.00 0.00 0.00 47 1011.1
20260502231921 55 98 0.0 0.9 0.00 0.00 0.00 47 1011.0
20260502231146 55 98 0.0 1.7 0.00 0.00 0.00 46 1011.1
20260502230624 56 98 0.0 1.7 0.00 0.00 0.00 47 1011.1
20260502230124 56 77 0.9 3.5 0.00 0.00 0.00 45 1010.9
20260502225621 56 115 0.9 3.5 0.00 0.00 0.00 45 1010.9
20260502225054 56 89 0.9 1.7 0.00 0.00 0.00 44 1010.9
20260502225041 56 89 0.9 1.7 0.00 0.00 0.00 44 1010.9
20260502224022 56 96 0.9 2.6 0.00 0.00 0.00 42 1010.8
20260502223754 57 86 0.9 2.6 0.00 0.00 0.00 42 1010.7
20260502223237 57 92 0.9 2.6 0.00 0.00 0.00 42 1010.7
20260502222715 58 92 0.9 3.5 0.00 0.00 0.00 40 1010.7
20260502221918 58 175 0.9 2.6 0.00 0.00 0.00 39 1010.6
20260502221648 58 190 0.9 2.6 0.00 0.00 0.00 42 1010.6
20260502220911 58 134 0.9 1.7 0.00 0.00 0.00 42 1010.6
20260502220410 58 222 0.0 1.7 0.00 0.00 0.00 40 1010.6
20260502215907 58 77 0.0 3.5 0.00 0.00 0.00 41 1010.6
20260502215401 58 165 0.0 3.5 0.00 0.00 0.00 42 1010.6